Regional Weather Roundup
Issued by NWS Bismarck, ND

Home | Current Version | Previous Version | Text Only | Print | Product List | Glossary On
Versions: 1 2 3 4 5 6 7 8 9 10 11 12 13 14 15 16 17 18 19 20 21 22 23 24 25 26 27 28 29 30 31 32 33 34 35 36 37 38 39 40 41 42 43 44 45 46 47 48 49 50
000
ASUS43 KBIS 212202
RWRBIS

NWR BROADCAST TEXT
NATIONAL WEATHER SERVICE BISMARCK ND
500 PM CDT THU SEP 21 2017

NOTE: "FAIR" INDICATES FEW OR NO CLOUDS BELOW 12,000 FEET WITH NO
SIGNIFICANT WEATHER AND/OR OBSTRUCTIONS TO VISIBILITY.


CITY           SKY/WX    TMP DP  RH WIND       PRES   REMARKS
WILLISTON      PTSUNNY   63  38  39 NW9       29.78R
MINOT          SUNNY     71  45  39 N10       29.70R
MINOT AFB      MOSUNNY   68  44  42 N8        29.70R
BISMARCK       SUNNY     79  52  38 NW10      29.65R
DICKINSON      SUNNY     69  42  37 NW13      29.72S
GARRISON         N/A     72  45  37 NW16G26   29.69R
HETTINGER ARPT SUNNY     71  41  33 N16       29.73R
JAMESTOWN      SUNNY     82  59  45 S16G24    29.63F
CARRINGTON     FAIR      81  61  50 S17       29.65F
HAZEN          FAIR      72  45  37 N13       29.70S
LINTON           N/A     82  57  42 SW12G17   29.64S
RUGBY          CLOUDY    68  52  56 N10       29.68R
STANLEY        FAIR      64  39  39 NW12      29.77R
TIOGA          FAIR      59  36  41 N13       29.79R
WATFORD CITY   FAIR      63  39  42 NW9G17    29.77R
$$

CITY           SKY/WX    TMP DP  RH WIND       PRES   REMARKS
GRAND FORKS    MOSUNNY   81  47  30 SE18      29.67F
GRAND FORKS AF SUNNY     80  45  29 S14       29.67F
DEVILS LAKE    CLOUDY    75  57  53 S7        29.65F
FARGO          MOSUNNY   80  54  40 SE12G20   29.67F
CANDO          MOCLDY    70  52  52 N14       29.68S
CAVALIER       FAIR      75  48  38 S14G21    29.67S
GRAFTON        FAIR      79  46  31 S17G25    29.69F
GWINNER        PTCLDY    79  61  53 SE12G18   29.66S
LANGDON        CLOUDY    75  50  41 S14G20    29.69S
ROLLA          CLOUDY    64  48  55 N12       29.71S
WALHALLA       FAIR     N/A N/A N/A SE8G15    29.68S
$$

CITY           SKY/WX    TMP DP  RH WIND       PRES   REMARKS
ABERDEEN       SUNNY     86  64  47 S16G23    29.62F
MOBRIDGE       SUNNY     88  58  36 VRB7      29.59S
BUFFALO          N/A     72  39  30 NE10      29.67S
GLASGOW        CLOUDY    59  33  37 W13       29.83R
SIDNEY         PTSUNNY   61  34  36 N12       29.79S
WOLF POINT     CLOUDY    63  30  28 W9        29.80S
GLENDIVE       MOSUNNY   59  33  37 NW14      29.81S
MILES CITY     CLOUDY    55  36  48 NW9       29.83S
BAKER          SUNNY     65  33  30 NW10G22   29.80R
$$

CITY           SKY/WX    TMP DP  RH WIND       PRES   REMARKS
BILLINGS       CLOUDY    49  41  74 E6        29.86R
GREAT FALLS    CLOUDY    54  28  36 NE6       29.85R
$$





USA.gov is the U.S. government's official web portal to all federal, state and local government web resources and services.